www.pogodaiklimat.ru

Погода и климат >> Архив погоды >> Узбекистан >> Каракалпакия


ПОГОДА в Каракалпакии

  • Прогноз погоды в Каракалпакии
  • Монитор погоды в Каракалпакии

АРХИВ ПОГОДЫ в Каракалпакии

Время (UTC), дата Ветер
(напр.,м/с)
 
Видим.   Явления Облачность Т
(С)
Тd
(С)
f
(%)
Тe
(С)
Тes
(С)
Комфортность P
(гПа)
Po
(гПа)
Тmin
(С)
Tmax
(С)
R
(мм)
R24
(мм)
S
(см)
00 11.06 штиль 0 н/о ясно +16.5 0.0 33 +17 +17 1020.7 1005.6
03 11.06 С 2 20 км ясно +23.8 +1.5 23 +23 +27 комфорт 1020.4 1005.6
06 11.06 нст 1 20 км ясно +31.1 -2.7 11 +28 +45 жарко 1019.5 1005.1 +15.5
09 11.06 нст 1 20 км ясно +33.5 -3.3 9 +30 +52 опасность
солнечного
удара
1018.1 1003.8
12 11.06 штиль 0 20 км ясно +34.5 -3.8 8 +30 +43 жарко 1017.8 1003.6
15 11.06 штиль 0 20 км ясно +33.0 -5.0 8 +29 +30 жарко 1017.9 1003.6 +36.1
18 11.06 штиль 0 н/о ясно +25.9 -2.5 15 +24 +24 комфорт 1016.3 1001.8 +36.1
21 11.06 нст 1 н/о ясно +21.4 -1.3 22 +21 +21 комфорт 1015.5 1001.0
00 12.06 штиль 0 н/о ясно +20.6 -0.5 24 +20 +20 1015.8 1001.0
03 12.06 штиль 0 20 км ясно +23.7 +0.2 21 +23 +28 комфорт 1015.5 1000.8
06 12.06 З 2 20 км 3/0
[Ci fib]
+34.0 -2.2 10 +30 +44 жарко 1014.1 999.9 +19.5
09 12.06 штиль 0 20 км ясно +36.6 -5.4 7 +32 +58 опасность
солнечного
удара
1012.9 998.9
12 12.06 штиль 0 20 км 3/0
[Ci fib]
+36.8 -5.4 7 +33 +44 жарко 1012.3 998.3
15 12.06 штиль 0 20 км 3/0
[Ci fib]
+35.6 -3.0 8 +32 +32 жарко 1011.5 997.5 +38.2
21 12.06 Ю 2 н/о ясно +24.2 -3.0 16 +22 +22 комфорт 1011.6 997.0
00 13.06 Ю 2 н/о ясно +22.8 -2.5 18 +21 +21 комфорт 1011.3 996.7
03 13.06 штиль 0 20 км ясно +26.6 -1.7 15 +24 +29 комфорт 1010.4 996.0
06 13.06 З 3 20 км 5/0
[Ci fib]
+35.0 -4.4 8 +31 +42 жарко 1009.3 995.3 +21.5
09 13.06 З 2 20 км 4/0
[Ci fib]
+37.6 -1.7 8 +34 +51 опасность
солнечного
удара
1008.2 994.3
12 13.06 З 2 20 км 6/6 1000 м
[Cu hum]
+37.6 -5.4 6 +33 +37 жарко 1007.2 993.3
15 13.06 СЗ 3 20 км 6/0
[Ci sp]
+36.3 -4.1 7 +32 +32 жарко 1006.4 992.5 +39.1
18 13.06 СЗ 2 н/о ясно +30.2 -5.0 10 +27 +27 жарко 1007.0 992.4 +39.1
21 13.06 СЗ 3 н/о ясно +27.2 -0.9 16 +25 +25 комфорт 1007.2 992.8
00 14.06 СЗ 2 н/о ясно +21.8 -3.3 18 +21 +21 комфорт 1007.0 992.4
03 14.06 С 5 20 км ясно +23.8 +7.7 36 +24 +26 комфорт 1007.7 993.1
06 14.06 С 6 20 км 3/0
[Ci fib]
+27.0 +8.5 31 +27 +33 жарко 1008.7 994.3 +20.4
09 14.06 С 10 20 км 3/0
[Ci fib]
+29.9 +4.3 20 +28 +29 жарко 1009.0 994.7
12 14.06 С 10 20 км 3/0
[Ci fib]
+29.4 -12.7 6 +25 +26 комфорт 1009.0 994.7
15 14.06 СЗ 10 20 км ясно +27.7 -8.8 8 +24 +24 комфорт 1010.2 994.9 +31.1
18 14.06 С 6 н/о ясно +22.8 -5.4 15 +21 +21 комфорт 1010.6 996.0 +31.1
21 14.06 С 6 н/о ясно +17.4 -5.3 21 +17 +17 1011.5 996.2
00 15.06 СЗ 5 н/о ясно +14.8 -3.6 28 +14 +14 1011.8 996.8
03 15.06 СЗ 5 20 км ясно +18.1 -1.9 26 +18 +20 1012.7 997.7
06 15.06 С 5 20 км ясно +24.3 -1.9 18 +23 +31 комфорт 1012.3 997.6 +12.9
09 15.06 СЗ 4 20 км ясно +26.0 -4.7 13 +23 +36 комфорт 1011.7 997.2
12 15.06 З 4 20 км ясно +27.2 -8.6 9 +24 +30 комфорт 1011.3 996.9
15 15.06 СЗ 4 20 км ясно +26.8 -5.0 12 +24 +24 комфорт 1010.7 996.3 +28.7
18 15.06 СЗ 2 н/о ясно +22.1 -2.5 19 +21 +21 комфорт 1012.5 997.7 +28.7
21 15.06 С 2 н/о ясно +17.5 -2.5 25 +18 +18 1012.6 997.6
00 16.06 З 2 н/о 6/0
[Ci sp]
+17.2 -2.2 27 +18 +18 1012.4 997.5
03 16.06 З 2 20 км 3/0
[Ci fib]
+19.3 -0.5 26 +20 +23 1013.0 998.1
06 16.06 З 2 20 км 4/0
[Ci fib]
+27.7 -1.4 15 +25 +39 комфорт 1012.4 997.9 +15.8
12 16.06 З 2 20 км 3/0
[Ci fib]
+32.6 +0.4 13 +29 +38 жарко 1010.8 996.7
15 16.06 З 2 20 км 4/0
[Ci fib]
+32.2 -0.2 13 +29 +30 жарко 1008.5 994.3 +33.8
18 16.06 З 2 н/о 4/0
[Ci sp]
+26.9 +0.9 18 +25 +25 комфорт 1008.9 994.5 +33.8
21 16.06 З 2 н/о ясно +20.5 +1.5 28 +21 +21 комфорт 1009.3 994.6
03 17.06 З 2 20 км 3/0
[Ci fib]
+21.8 +6.5 37 +23 +26 комфорт 1008.9 994.2
15 17.06 З 4 20 км 6/6 600 м
[Cb cap]
+31.8 +6.1 20 +30 +30 жарко 1007.4 993.2 +33.5

 

Местоположение метеостанции Каракалпакия (Каракалпакстан, Узбекистан): широта 44.85 долгота 56.33 высота над уровнем моря 126 м.

В архиве по умолчанию представлена погода в Каракалпакии за последнюю неделю. Архивные данные за месяц целиком и за предыдущие месяцы, начиная с января 2011 года, Вы можете получить, выбрав интересующий диапазон дат из раскрывающегося списка и нажав кнопку "Ввод!".


*Определитесь, кто Вы:
робот инопланетянин человек

Внимание! Время в таблицах - всемирное. Для получения местного времени необходимо прибавить поправку, которая равна 5 ч.

Смотрите также архив погоды в соседних городах и на ближайших метеорологических станциях:

Погода в Саме (Мангистауская область, Казахстан) (63 км)
Погода в Бейнеу (Мангистауская область, Казахстан) (103 км)
Погода в Жаслыке (Каракалпакстан, Узбекистан) (144 км)
Погода в Опорной (Мангистауская область, Казахстан) (197 км)
Погода в Муйнаке (Каракалпакстан, Узбекистан) (227 км)
Погода в Сай-Утесе (Мангистауская область, Казахстан) (228 км)
Погода в Аккудуке (Мангистауская область, Казахстан) (274 км)
Погода в Кульсары (Атырауская область, Казахстан) (286 км)
Погода в Кунграде (Каракалпакстан, Узбекистан) (286 км)
Погода в Аяккуме (Актюбинская область, Казахстан) (303 км)

Пояснения к столбцам:

Ветер - указаны скорость ветра в м/с - средняя за 10 мин, порывы в срок и между сроками (в фигурных скобках) и направление, откуда дует ветер: С - северный, СВ - северо-восточный, В - восточный, ЮВ - юго-восточный, Ю - южный, ЮЗ - юго-западный, З - западный, СЗ - северо-западный.
Видимость - горизонтальная дальность видимости в метрах или километрах. При видимости от 1 до 10 км при отсутствии осадков обычно наблюдается дымка, при ухудшении видимости до 1 км и менее - туман. В сухую погоду видимость может ухудшаться дымом, пылью или мглою.
Явления - указаны атмосферные явления, наблюдавшиеся в срок или в последний час перед сроком; фигурными скобками обозначены явления, наблюдавшиеся между сроками (за 1-3 часа до срока); квадратными скобками обозначены град или гололедные отложения с указанием их диаметра в мм.
Облачность - указаны через наклонную черту общая и нижняя облачность в баллах и высота нижней границы облаков в метрах; квадратными скобками обозначены формы облаков: Ci - перистые, Cs - перисто-слоистые, Cc - перисто-кучевые, Ac - высококучевые, As - высокослоистые, Sc - слоисто-кучевые, Ns - слоисто-дождевые, Cu - кучевые, Cb - кучево-дождевые. Подробнее классификацию облаков см. в Атласе облаков (PDF).
T - Температура воздуха - температура, измеренная на высоте 2 м над землей.
Td - Температура точки росы - температура, при понижении до которой содержащийся в воздухе водяной пар достигнет насыщения.
f - Относительная влажность воздуха - влажноcть воздуха, измеренная на высоте 2 м над землей.
Te - Эффективная температура - температура, которую ощущает одетый по сезону человек в тени. Характеристика душности погоды. При расчете учитывается влияние влажности воздуха и скорости ветра на теплоощущения человека.
Tes - Эффективная температура на солнце - температура, которую ощущает человек, с поправкой на солнечный нагрев. Характеристика знойности погоды. Зависит от высоты солнца над горизонтом, облачности и скорости ветра. Ночью, в пасмурную погоду, а также при ветре 12 м/с и более поправка равна нулю.
P - Атмосферное давление - приведенное к уровню моря атмосферное давление.
Po - Атмосферное давление - измеренное на уровне метеостанции атмосферное давление.
Tmin - Минимальная температура - минимум температуры воздуха на высоте 2 м над землей.
Tmax - Максимальная температура - максимум температуры воздуха на высоте 2 м над землей.
R - Количество осадков - Количество выпавших осадков за период времени, мм. При наведении курсора мыши на число - период времени, за который выпало указанное количество осадков.
R24 - Количество осадков - Количество выпавших осадков за 24 часа, мм.
S - Снежный покров - Высота снежного покрова, см. При наведении курсора мыши на число - состояние снежного покрова и степень покрытия местности в баллах.